Погода в Камском

Россия / Удмуртская Республика     57°01′55″N   54°12′31″E
темп.,
°C
ветер,
м/с
пор.,
м/с
влажн.,
%
обл.,
%
осадки,
мм/ч
давл.,
гПа
погр.,
м
18 апреля, вс
вс1801:00+4сз11755 0.0 102210
04:00+3сз11805 0.0 102210
07:00+3ссз27785 0.0 1022165
10:00+5ссв6875100 0.0 1023906
13:00+6ссв674410 0.0 10251428
16:00+6св68405 0.0 10261606
19:00+4всв5104891 0.0 1027710
22:00+1всв512535 0.0 1030599
19 апреля, пн
пн1901:00−1всв412585 0.0 1032478
04:00−2всв411566 0.0 1033425
07:000всв49460 0.0 1034868
10:00+3в58290 0.0 10341462
13:00+5в57270 0.0 10341703
16:00+6всв46280 0.0 10331733
19:00+3всв36450 0.0 1034139
22:000всв22530 0.0 103518
20 апреля, вт
вт2001:00−1всв22590 0.0 103515
04:00−1в11570 0.0 103610
07:00+1в01480 0.0 1036125
10:00+6ссв11325 0.0 1036963
13:00+8ссз11295 0.0 10351284
16:00+9сз22283 0.0 10331267
19:00+6ссз11410 0.0 103210
22:00+3юз00480 0.0 103310
21 апреля, ср
ср2101:00+2в11540 0.0 103310
04:00+1юв11580 0.0 103310
07:00+3ююв12510 0.0 1033103
10:00+8юв24365 0.0 1032828
13:00+11ююв353172 0.0 10311373
16:00+12ююв5633100 0.0 10291355
19:00+9ююв384785 0.0 1029250
22:00+6ююв31159100 0.0 1030276
22 апреля, чт
чт2201:00+5ююв31357100 0.0 1029344
04:00+5ююв41358100 0.0 1030368
07:00+6ю41255100 0.0 1030732
10:00+8ю51050100 0.0 10301046
13:00+8юз41062100 0.0 10311124
16:00+10ююз61059100 0.0 10311454
19:00+7юз3877100 0.0 1031670
22:00+6ююз31076100 0.0 1032657